Location: Churchill Northern Studies Centre
(58.7378°N, 93.8201°W)
Time: 04:22:16
(UTC-05:00)

Vanguard 1 - All Passes

Search period start: 18 June 2018 00:00
Search period end: 28 June 2018 00:00
Orbit: 650 x 3833 km, 34.3° (Epoch: 17 June)

Date Brightness Start Highest point End Pass type
(mag) Time Alt. Az. Time Alt. Az. Time Alt. Az.
18 Jun - 08:18:29 10° SSW 08:29:19 25° SSE 08:44:03 10° ESE daylight
18 Jun - 10:35:59 10° SW 10:50:08 32° S 11:08:28 10° SE daylight
18 Jun - 12:56:53 10° WSW 13:11:54 27° SSW 13:28:51 10° SSE daylight
18 Jun - 15:24:10 10° WSW 15:32:28 13° SW 15:40:50 10° SSW daylight
19 Jun - 06:25:51 10° SSE 06:30:35 12° SE 06:36:04 10° ESE daylight
19 Jun - 08:38:13 10° SSW 08:49:28 27° SSE 09:05:03 10° ESE daylight
19 Jun - 10:56:27 10° WSW 11:10:33 32° S 11:28:43 10° SE daylight
19 Jun - 13:18:05 10° WSW 13:32:09 24° SSW 13:47:53 10° SSE daylight
20 Jun - 06:43:38 10° SSE 06:50:23 15° SE 06:58:52 10° ESE daylight
20 Jun - 08:58:11 10° SW 09:09:43 28° SSE 09:25:52 10° ESE daylight
20 Jun - 11:17:03 10° WSW 11:30:58 30° S 11:48:44 10° SE daylight
20 Jun - 13:39:40 10° WSW 13:52:20 20° SW 14:06:21 10° S daylight
21 Jun - 07:02:28 10° S 07:10:17 18° SE 07:20:42 10° ESE daylight
21 Jun - 09:18:20 10° SW 09:30:02 29° S 09:46:30 10° ESE daylight
21 Jun - 11:37:50 10° WSW 11:51:23 28° SSW 12:08:28 10° SSE daylight
21 Jun - 14:01:53 10° WSW 14:12:26 16° SW 14:23:54 10° S daylight
22 Jun - 07:21:50 10° SSW 07:30:19 21° SSE 07:42:04 10° ESE daylight
22 Jun - 09:38:39 10° SW 09:50:25 29° S 10:06:57 10° SE daylight
22 Jun - 11:58:48 10° WSW 12:11:46 25° SSW 12:27:50 10° SSE daylight
22 Jun - 14:25:39 10° WSW 14:32:28 12° SW 14:39:39 10° SSW daylight
23 Jun - 07:41:32 10° SSW 07:50:27 23° SSE 08:03:08 10° ESE daylight
23 Jun - 09:59:07 10° SW 10:10:51 29° S 10:27:10 10° SE daylight
23 Jun - 12:20:03 10° WSW 12:32:06 22° SSW 12:46:44 10° SSE daylight
24 Jun - 05:48:27 10° SSE 05:51:59 12° SE 05:56:05 10° ESE daylight
24 Jun - 08:01:29 10° SSW 08:10:41 25° SSE 08:23:58 10° ESE daylight
24 Jun - 10:19:44 10° WSW 10:31:17 27° S 10:47:09 10° SE daylight
24 Jun - 12:41:43 10° WSW 12:52:23 18° SSW 13:04:58 10° S daylight
25 Jun - 06:06:41 10° S 06:11:55 14° SE 06:18:31 10° ESE daylight
25 Jun - 08:21:39 10° SW 08:31:00 25° SSE 08:44:36 10° ESE daylight
25 Jun - 10:40:32 10° WSW 10:51:43 25° SSW 11:06:48 10° SSE daylight
25 Jun - 13:04:14 10° WSW 13:12:37 14° SW 13:22:06 10° SSW daylight
26 Jun - 06:25:51 10° S 06:31:57 17° SSE 06:40:05 10° ESE daylight
26 Jun - 08:41:58 10° SW 08:51:22 25° S 09:05:02 10° SE daylight
26 Jun - 11:01:34 10° WSW 11:12:09 22° SSW 11:26:03 10° SSE daylight
26 Jun - 13:29:46 10° SW 13:32:46 10° SW 13:35:54 10° SW daylight
27 Jun - 06:45:28 10° SSW 06:52:05 19° SSE 07:01:14 10° ESE daylight
27 Jun - 09:02:27 10° SW 09:11:47 25° S 09:25:13 10° SE daylight
27 Jun - 11:22:55 10° WSW 11:32:33 19° SSW 11:44:46 10° S daylight
